Wind_Speed
25 23 22 21 20 19 18 18 17 16 15 12 8 5 2 2 2 3 4 6 8 10 12 13 11 8 6 4 5 6 7 7 8 9 10 11 12 13 14 15 14 14 14 15 16 18 20 23 25 25 25 24 23 21 19 17 16 16 14 14 15 14 14 14 13 13 11 12 16 17 15 14 15 15 15 16 19 21 24 26 26 27 28 28 28
24 23 22 22 21 21 20 20 19 18 16 13 10 7 4 2 2 4 5 5 6 8 10 12 11 9 7 4 3 4 4 4 5 6 7 8 9 10 11 11 11 11 11 12 13 14 15 17 20 22 24 25 26 25 22 20 18 17 15 14 14 13 12 12 12 12 12 12 12 17 19 17 17 17 15 15 16 18 19 21 24 26 27 28 29
23 23 23 23 23 22 22 22 21 20 18 15 12 8 6 5 4 5 6 6 7 8 9 12 12 9 7 4 3 3 3 3 3 4 4 5 5 6 7 8 9 9 10 10 10 11 12 13 15 17 19 21 23 25 24 22 21 20 16 14 14 12 11 11 11 11 12 12 11 13 17 19 18 16 15 16 18 18 18 19 22 24 26 27 28
23 24 25 25 24 24 24 23 22 22 21 18 14 10 7 6 6 7 7 7 8 9 9 11 12 10 8 5 3 2 2 1 1 2 2 2 2 2 3 3 4 6 7 8 9 9 10 11 12 13 14 15 17 21 22 21 21 21 18 16 16 15 13 12 13 12 12 12 12 11 13 17 19 17 15 15 16 18 19 19 21 22 23 24 25
22 23 23 23 23 23 24 24 24 25 23 19 15 11 9 9 9 9 9 8 9 10 9 10 11 10 9 6 4 2 1 1 2 1 0 1 1 1 0 0 1 2 4 5 6 7 9 10 11 11 11 11 12 14 17 19 21 21 20 19 18 17 16 15 14 14 14 14 13 12 11 11 14 16 17 16 15 17 19 20 21 22 22 22 22
20 20 20 21 21 22 23 24 26 26 25 21 16 12 12 12 12 11 11 10 10 10 9 9 11 10 9 7 5 3 1 2 3 2 2 3 3 2 1 0 1 1 2 3 3 4 6 8 9 10 10 10 10 11 12 14 17 19 20 20 19 19 19 18 17 16 16 16 15 14 12 10 10 12 14 16 17 18 19 20 21 22 23 23 21
19 20 20 21 21 22 22 23 25 27 26 23 18 14 14 14 13 12 12 12 11 11 10 9 10 9 8 7 5 4 2 1 2 2 2 2 1 1 1 2 2 3 3 3 3 3 3 5 6 8 9 9 10 10 9 10 12 15 17 17 18 19 19 19 19 18 19 18 17 17 16 13 12 13 13 13 14 16 18 19 19 21 22 22 22
20 21 22 23 24 24 23 23 24 26 26 25 21 16 14 14 13 12 12 13 12 12 11 9 9 8 6 6 4 3 2 1 0 1 1 1 1 2 2 3 4 4 4 4 4 4 4 4 5 6 6 7 8 8 8 8 9 11 13 14 14 15 16 17 18 19 20 20 19 19 18 16 14 14 15 15 15 14 15 17 18 18 18 20 22
22 23 24 25 27 27 26 25 25 27 28 27 23 18 16 15 13 11 11 12 13 12 10 9 9 7 6 5 4 3 2 2 1 1 1 1 1 3 3 3 3 4 4 4 5 5 5 5 6 6 6 6 6 6 6 6 6 8 10 11 11 12 13 14 15 17 18 19 20 21 20 19 18 19 19 18 17 17 18 19 18 18 18 19 21
23 24 26 28 30 30 31 29 28 28 28 28 26 21 18 17 14 11 10 11 12 11 10 9 9 7 6 5 4 3 3 3 2 1 1 1 2 3 4 4 4 3 3 3 3 4 5 6 7 7 7 7 6 6 5 5 5 6 7 8 9 9 9 10 12 13 14 16 17 19 19 20 21 23 23 22 22 22 23 24 21 21 21 19 19
20 23 25 26 28 30 32 33 31 28 28 29 28 25 21 19 17 12 10 12 11 10 10 10 10 8 6 5 4 4 3 3 4 3 2 2 2 3 5 5 5 4 3 2 2 2 3 5 7 8 8 8 8 7 6 6 6 6 7 7 7 6 6 7 8 9 10 12 13 14 15 17 19 21 22 22 23 24 26 26 25 24 23 22 22
17 20 22 23 24 26 27 29 31 29 29 30 29 27 24 21 18 13 10 12 12 11 12 11 10 8 6 5 5 5 4 4 4 4 4 3 2 3 5 6 6 6 5 4 3 2 1 3 4 6 7 8 8 8 8 7 7 7 7 7 6 6 6 6 6 7 7 8 9 9 10 11 13 14 16 17 19 20 21 22 23 24 24 24 24
16 18 21 23 24 24 23 24 29 30 30 32 31 28 26 24 21 15 12 13 13 13 12 11 10 9 7 6 5 5 5 5 4 5 5 4 3 3 4 5 6 6 6 6 5 4 3 1 1 3 5 6 7 7 7 7 7 7 8 8 8 7 6 6 6 6 6 7 7 7 7 7 8 9 10 11 12 13 15 15 16 17 18 18 19
15 16 19 23 24 24 22 22 27 30 31 32 31 29 27 25 23 18 15 15 15 14 13 12 10 9 8 7 6 5 5 6 6 5 5 4 4 3 3 3 4 5 6 6 6 6 5 4 3 1 1 3 4 5 5 6 6 6 7 8 9 9 9 8 8 8 8 8 8 8 8 8 8 8 9 9 10 10 11 12 12 12 13 13 13
10 12 15 20 22 22 22 24 27 29 31 33 32 30 29 27 25 22 19 18 17 16 15 13 12 11 9 8 7 7 6 7 7 7 6 5 5 5 4 3 3 4 5 6 6 7 7 6 6 4 3 2 3 3 4 4 5 5 5 6 7 8 9 10 10 10 11 11 11 11 11 11 11 11 12 12 12 12 12 13 13 13 13 13 12
6 7 9 12 16 18 20 22 24 26 29 33 33 32 31 29 27 25 23 21 20 18 17 15 14 13 12 11 10 9 8 8 8 8 8 7 7 7 6 5 5 4 4 5 6 6 7 7 7 7 6 5 5 5 5 5 6 6 5 5 5 6 7 8 9 10 11 11 12 13 13 13 14 14 14 14 15 15 15 15 16 16 16 16 15
5 5 4 4 9 13 17 19 21 25 28 32 33 33 32 31 30 28 27 25 22 21 19 18 17 16 15 14 13 12 11 10 10 10 10 10 10 9 8 7 7 7 6 5 6 6 7 7 8 8 8 8 7 7 7 7 8 8 8 7 7 7 7 7 8 8 9 10 10 11 12 12 13 13 13 14 14 15 15 16 16 17 17 17 16
6 6 4 3 4 7 10 14 17 21 24 28 31 33 34 33 32 31 29 27 25 24 22 21 19 18 17 17 15 14 13 12 12 12 12 13 12 11 11 10 10 10 9 8 8 8 8 8 8 8 9 9 9 9 8 8 9 9 10 10 10 10 9 9 9 9 9 10 10 10 11 11 11 11 12 12 12 13 13 14 14 15 15 15 15
8 8 6 7 10 10 8 7 9 13 17 20 24 28 31 33 33 32 32 31 28 27 26 24 22 21 20 19 18 17 16 15 15 14 14 14 14 14 14 13 13 13 12 11 11 11 12 11 10 9 9 10 10 10 9 9 9 9 9 10 11 11 11 11 11 10 10 10 11 11 11 11 11 11 12 12 12 12 12 13 13 14 15 15 16
8 8 7 6 11 16 15 11 11 13 12 12 13 17 23 29 31 30 29 30 29 28 28 27 25 24 23 22 21 20 19 18 17 17 16 16 16 16 16 16 16 16 16 14 13 13 14 15 14 13 11 11 11 11 11 10 10 9 10 10 10 11 11 11 11 12 12 12 12 12 12 12 13 13 13 13 13 14 14 15 15 15 16 16 17
9 9 8 5 5 9 13 16 20 22 21 17 14 13 14 20 27 27 24 24 26 27 29 30 29 27 25 25 24 23 23 21 21 20 19 18 18 18 18 18 19 19 19 18 17 16 17 17 18 17 15 14 13 13 12 12 12 11 11 11 11 11 12 12 13 13 13 14 14 15 14 14 15 15 16 16 16 16 17 17 18 18 18 19 19
11 11 11 9 8 7 9 12 17 21 24 26 27 25 23 22 26 30 28 24 24 26 28 29 29 27 27 27 27 27 26 26 25 24 23 22 21 20 20 20 21 21 21 22 22 21 20 20 20 20 18 17 17 16 16 15 14 14 14 13 13 14 13 14 14 14 15 15 16 17 18 18 18 18 19 19 20 20 20 21 21 21 21 21 21
13 13 13 12 12 11 11 11 12 14 18 23 27 29 29 27 28 31 33 31 28 28 29 29 28 27 27 28 29 29 29 29 28 28 27 26 24 23 23 22 22 23 23 24 25 25 24 24 24 23 22 21 20 19 19 18 17 17 17 16 16 16 16 16 16 16 17 17 17 18 19 20 21 21 22 22 23 23 23 24 24 25 25 25 24
15 15 14 13 13 12 12 13 13 14 14 16 19 21 22 24 25 27 29 31 31 30 31 32 30 28 28 28 30 30 31 31 31 31 31 29 28 26 26 25 25 25 25 25 27 28 28 28 27 26 25 24 23 22 21 20 20 19 19 19 19 19 18 18 18 18 18 19 19 19 20 21 22 23 24 24 25 26 26 26 27 27 28 29 28
16 15 14 13 13 12 13 13 14 15 15 16 16 17 18 20 22 22 22 25 27 28 29 30 29 30 30 31 30 29 29 31 33 33 31 30 30 30 29 29 28 28 27 28 29 29 30 30 29 29 28 27 26 25 24 24 23 22 22 22 22 22 21 21 21 21 21 21 21 21 21 22 23 24 24 26 27 27 28 29 29 30 30 31 31
15 14 14 13 13 12 12 12 13 14 15 16 16 16 16 16 16 17 17 19 22 24 26 27 27 29 30 29 28 24 24 27 30 29 28 29 31 34 33 32 32 31 31 31 31 31 31 32 32 32 31 30 29 28 27 27 26 25 24 25 25 25 25 25 25 25 25 24 24 25 24 24 25 25 25 26 27 28 29 30 31 31 32 33 33
14 14 14 14 13 13 13 13 14 14 15 16 16 16 15 15 15 15 15 16 18 21 25 27 28 29 28 27 26 25 25 27 29 28 29 30 32 35 37 36 35 34 34 34 34 33 34 34 35 35 34 33 33 32 31 30 30 27 26 27 28 29 29 28 28 28 28 27 27 28 28 28 28 28 28 28 28 29 30 30 31 32 33 34 35
18 17 17 17 17 17 17 18 18 17 17 17 18 18 18 17 17 16 17 17 17 18 21 24 27 28 28 26 26 27 28 29 30 32 33 32 31 33 36 37 37 37 37 36 37 37 37 36 36 36 37 37 37 37 36 34 32 30 28 28 29 30 30 31 31 31 31 31 31 30 30 30 30 30 31 31 31 31 32 32 32 33 34 35 36
23 23 23 22 22 21 21 21 21 21 21 20 20 20 20 21 21 21 21 21 21 21 21 22 23 25 26 26 26 27 29 30 31 32 33 32 31 32 34 36 37 39 40 39 40 41 39 38 39 39 38 38 37 37 35 32 30 30 29 29 29 30 31 32 33 34 34 34 34 34 34 33 32 32 33 34 34 34 34 34 35 35 36 36 37
26 27 27 27 26 25 25 25 25 25 25 25 25 24 24 24 24 24 25 25 25 26 26 26 26 27 27 28 29 30 31 32 33 34 34 34 34 34 34 35 37 39 41 42 42 43 42 41 42 42 38 35 33 32 31 29 27 28 28 29 29 30 32 33 34 36 36 37 37 37 37 36 35 34 34 35 36 36 37 37 37 37 38 38 38
26 26 26 27 27 28 29 28 27 26 26 26 27 28 29 30 30 30 30 29 29 29 30 30 31 31 31 32 32 33 34 34 36 37 38 38 38 38 37 36 37 39 41 43 44 44 44 43 44 43 39 35 35 34 31 29 28 28 29 29 30 31 33 35 36 37 38 40 40 40 40 40 38 37 36 37 37 37 38 38 38 39 39 39 40
26 25 26 26 25 25 26 25 24 24 23 23 23 24 25 27 27 29 30 30 31 32 32 33 34 34 34 35 36 36 37 38 39 40 40 40 40 40 39 38 38 38 39 42 42 41 41 42 43 43 41 39 38 37 35 34 33 32 32 31 32 34 35 36 37 38 39 41 42 42 42 42 41 41 40 40 40 40 40 39 39 40 41 41 42
26 26 26 25 25 24 23 23 22 22 22 21 22 22 23 23 24 25 26 27 28 29 29 30 31 32 33 34 36 37 38 40 40 41 41 41 41 41 41 40 40 40 40 41 40 39 39 39 40 40 40 39 38 37 38 38 37 35 34 35 36 36 37 38 39 39 40 42 43 44 44 44 44 43 44 44 43 43 42 42 41 42 42 43 43
27 27 27 26 25 24 23 23 23 22 23 23 23 24 24 25 25 26 26 26 26 27 27 28 28 29 31 33 34 35 37 38 39 39 40 40 40 41 41 41 41 42 43 42 42 41 40 39 38 38 39 40 40 39 40 39 38 37 36 37 38 39 39 40 40 40 42 43 44 43 43 43 44 45 46 46 45 44 43 43 43 44 44 44 44
28 28 27 27 25 25 24 24 25 25 26 26 27 27 27 27 27 26 26 27 27 27 27 28 28 29 30 32 33 34 35 36 37 37 38 38 39 39 39 39 40 41 42 42 43 43 42 41 39 39 40 41 42 42 42 40 39 38 38 39 40 40 40 40 40 41 42 43 42 42 41 42 43 45 47 47 46 45 44 44 44 44 44 45 45
29 28 27 27 26 26 26 26 27 27 28 28 29 29 29 28 28 27 26 26 26 27 27 28 29 30 31 32 33 34 35 35 36 36 37 38 38 39 39 39 40 40 41 41 41 41 42 41 41 41 42 42 42 42 41 40 39 39 39 40 41 40 40 40 40 41 42 42 42 41 42 43 45 47 48 47 45 44 44 44 44 44 45 45 45
29 28 27 27 27 27 28 28 28 29 29 29 30 30 30 29 28 28 27 27 27 27 27 28 29 31 31 32 33 34 35 36 36 37 37 38 39 40 40 41 41 42 42 42 42 42 42 41 40 41 42 41 41 40 40 40 41 41 40 40 40 38 37 38 39 40 41 42 42 42 42 45 47 48 48 47 46 46 46 46 46 46 46 46 46
29 29 28 29 29 30 30 31 30 30 30 30 30 30 30 29 29 28 28 28 28 28 28 29 30 32 33 33 34 36 36 37 37 37 38 38 39 40 41 42 42 42 42 43 43 42 42 41 41 41 41 39 38 38 39 40 41 41 40 40 39 38 38 38 38 39 40 41 42 42 44 47 49 49 48 48 48 48 49 49 49 49 49 49 49
30 31 31 32 32 32 32 31 31 31 30 30 31 30 30 30 30 29 29 29 29 29 29 31 32 33 34 35 36 37 38 38 38 38 38 38 38 39 41 42 43 43 42 42 41 40 40 40 39 39 39 38 37 37 39 40 40 40 40 39 39 40 40 39 40 41 43 43 43 45 48 50 50 48 47 48 49 50 51 52 52 52 52 52 51
30 32 34 35 35 34 33 32 32 32 31 31 31 32 32 33 33 33 33 32 32 33 34 35 35 35 36 37 38 39 39 39 39 39 39 38 38 38 38 40 41 41 41 40 39 37 37 37 36 36 35 35 35 36 38 39 39 40 39 39 40 42 42 43 44 45 46 45 45 47 51 53 51 49 48 48 49 50 52 53 54 55 54 54 53
33 34 35 36 36 36 36 34 33 32 31 32 33 34 36 36 36 37 37 36 37 38 38 38 38 38 39 39 40 41 41 41 41 40 39 37 36 36 36 36 37 38 39 37 35 34 34 34 34 34 34 35 36 37 38 39 39 40 40 40 41 43 44 46 47 47 47 47 47 48 52 53 52 51 50 50 51 52 53 55 56 56 55 55 55
35 36 36 37 37 38 37 36 34 33 32 32 34 37 38 39 40 40 40 40 41 42 41 41 41 41 41 41 42 42 43 43 43 41 39 37 36 35 34 34 34 35 35 34 33 33 32 32 33 34 35 36 37 38 39 39 40 40 40 41 42 43 44 45 46 47 47 48 48 49 51 51 51 51 51 51 52 53 54 55 55 55 55 55 56
33 34 34 35 36 36 36 36 35 34 34 36 37 39 41 42 43 43 42 43 43 43 43 43 43 43 42 42 42 43 43 43 42 40 38 36 35 34 34 34 34 34 33 32 32 32 31 32 34 34 34 34 36 39 41 41 40 40 40 40 41 41 42 44 46 47 48 49 49 49 49 50 50 51 52 52 53 53 54 54 54 55 55 55 56
33 34 34 35 36 36 37 37 37 37 38 39 40 42 43 45 46 45 44 44 44 44 44 44 43 42 41 41 41 42 41 41 40 38 37 36 35 35 35 35 34 33 32 31 31 31 32 32 32 31 32 34 37 40 40 39 39 38 38 39 39 40 42 44 46 46 47 46 47 47 47 48 49 51 52 53 53 54 54 55 55 55 55 56 57
36 36 37 37 38 38 39 40 40 39 39 40 41 43 45 46 47 45 44 44 44 43 43 43 42 41 40 40 40 40 39 38 37 36 36 35 36 36 35 34 33 32 32 31 30 30 30 29 29 31 33 35 37 38 36 35 35 35 36 36 37 38 40 41 41 41 42 43 43 44 46 47 48 50 51 52 53 54 54 54 55 55 56 56 57
34 34 35 36 37 38 39 40 40 40 39 40 41 42 43 45 45 43 42 42 42 42 43 42 40 40 40 40 39 38 37 36 35 35 34 34 34 33 31 30 30 30 31 30 29 28 27 28 30 33 35 34 33 32 32 32 33 33 34 33 33 34 35 36 37 38 39 40 41 42 44 46 48 49 50 51 52 52 53 53 53 53 54 54 55
32 32 32 34 35 36 37 37 37 37 38 39 39 40 41 41 41 40 40 40 41 42 43 41 40 40 40 39 37 35 34 33 33 33 31 30 29 28 27 26 26 28 28 27 25 25 27 29 30 31 31 29 27 26 27 28 29 29 29 30 31 32 33 33 34 35 36 38 39 41 42 44 46 47 48 48 49 50 50 50 50 51 51 52 52
31 31 32 33 34 35 36 35 35 34 34 35 36 37 37 37 37 38 39 40 41 41 41 41 41 40 39 37 34 32 31 31 31 29 26 24 24 23 23 22 22 23 23 22 23 25 28 28 27 26 24 22 22 23 24 24 24 25 26 27 28 29 30 31 32 33 34 35 37 39 40 41 42 44 44 45 46 47 47 48 48 48 48 48 49
32 33 33 34 35 35 34 34 33 32 31 32 33 34 34 34 35 37 38 39 39 40 40 40 39 37 36 34 32 31 30 29 27 24 22 21 21 21 21 22 21 21 22 23 24 25 24 23 21 19 18 18 19 20 20 20 21 22 24 25 26 27 27 28 29 30 31 33 34 36 37 38 40 41 42 43 44 44 45 45 45 45 44 44 44
32 33 34 34 34 33 32 31 31 30 30 30 31 32 32 32 33 35 36 36 37 37 36 34 31 29 28 26 25 25 25 24 24 24 23 22 22 22 22 22 22 23 24 23 20 17 16 15 15 15 15 16 16 16 17 19 20 21 22 23 23 24 25 25 26 27 29 31 33 34 35 37 38 39 40 41 41 41 41 41 41 41 40 40 39
33 33 34 33 32 32 31 30 30 30 29 29 29 29 29 30 33 34 33 32 32 29 25 21 18 17 18 20 21 22 23 24 25 25 24 24 25 25 23 20 19 19 18 16 14 12 12 13 13 13 13 13 14 15 16 17 18 19 19 20 21 22 23 24 25 27 29 31 32 33 34 35 36 37 37 37 37 37 36 36 36 35 35 35 35
Wind_Direction
206 206 211 217 223 230 235 238 242 245 244 243 243 240 250 305 314 307 321 339 343 347 351 355 357 352 341 319 283 262 253 249 248 250 254 254 254 256 256 257 259 258 257 256 253 251 249 249 251 251 252 253 254 255 256 260 265 267 261 255 255 246 241 241 240 250 261 257 243 232 227 222 215 212 212 217 221 225 228 227 229 232 234 236 236
210 210 214 218 222 229 235 239 242 246 247 243 240 236 231 251 277 280 292 311 326 338 347 351 355 353 347 328 293 268 249 246 249 255 260 259 258 256 256 257 258 258 256 254 253 252 250 249 249 250 249 249 251 253 256 256 258 263 260 252 254 253 252 251 246 250 261 269 261 243 236 230 225 215 200 203 215 221 226 227 228 230 233 237 238
212 212 216 220 223 227 234 240 242 245 245 239 236 235 225 229 245 255 273 290 304 321 337 346 349 352 351 339 303 271 246 239 250 265 270 270 270 265 262 261 258 257 255 251 249 247 247 248 247 249 249 247 248 249 251 250 252 257 256 250 250 252 257 258 255 255 258 270 279 261 240 228 229 229 212 202 206 212 219 224 227 229 232 236 238
206 209 214 219 223 226 232 239 243 245 244 239 239 237 223 223 233 241 258 275 289 305 323 338 345 348 350 345 324 291 262 263 283 299 298 287 284 280 272 268 261 260 259 255 250 245 243 244 244 247 249 248 245 246 246 244 246 250 251 248 249 251 253 254 257 258 257 262 272 277 259 233 226 232 233 217 205 209 213 217 223 226 229 233 235
203 208 212 216 219 223 229 237 242 245 244 241 241 238 226 225 232 240 254 268 281 293 309 329 340 345 346 344 333 313 322 23 19 18 307 191 167 139 60 310 283 269 267 263 255 248 244 244 244 245 247 249 247 246 245 242 242 245 247 248 251 254 252 248 250 250 252 255 257 265 271 255 235 230 231 228 223 221 214 213 218 219 222 226 228
210 214 215 215 217 221 225 232 238 243 245 242 241 237 230 230 236 244 254 265 277 286 297 319 331 338 342 341 333 324 352 70 71 105 149 155 149 139 115 333 323 304 290 287 279 261 248 244 245 246 247 248 249 249 247 242 241 243 247 249 251 254 254 249 246 242 245 248 248 253 259 265 268 257 240 230 231 232 225 221 218 215 217 219 219
218 220 222 222 223 225 227 229 232 239 244 243 239 233 229 233 238 245 256 264 273 281 287 306 322 328 335 337 335 337 357 86 106 129 150 158 158 169 272 281 285 284 284 288 290 284 266 253 248 248 249 251 252 254 251 245 243 243 246 249 250 252 252 251 246 241 242 244 244 248 252 253 266 279 271 256 247 243 240 235 227 223 221 218 219
229 228 230 231 232 233 234 235 230 232 239 241 237 229 226 230 233 239 252 262 269 277 283 294 309 317 324 329 331 340 358 21 214 202 193 232 299 318 310 299 290 282 278 275 272 272 270 263 258 255 255 256 259 261 259 252 246 246 249 251 250 249 250 251 249 245 245 245 245 248 254 254 254 263 270 274 275 270 263 255 247 242 231 221 224
237 237 237 238 239 239 239 240 234 228 231 236 235 226 221 222 222 228 244 257 265 272 278 282 290 301 309 311 316 324 335 345 318 272 293 339 347 348 345 336 320 303 289 279 269 263 258 255 255 258 259 260 263 266 265 257 247 245 249 252 253 252 250 251 252 250 249 250 250 251 255 255 252 252 255 258 265 271 273 272 268 262 248 234 233
244 244 244 244 244 243 241 240 237 230 225 229 230 223 217 218 217 220 238 253 261 265 264 263 272 287 298 299 301 303 303 315 322 311 325 359 23 24 22 21 15 2 336 307 280 265 255 248 245 248 253 257 261 264 263 257 249 245 247 252 256 255 252 250 249 250 250 250 251 251 251 251 250 250 251 250 251 254 257 262 266 266 265 263 257
251 252 252 251 248 246 244 240 239 233 223 221 225 221 213 216 218 216 232 245 250 249 244 248 260 273 286 295 297 297 296 303 308 307 307 326 14 34 39 43 43 39 27 11 330 285 256 245 240 240 245 250 254 258 259 255 251 247 250 254 256 255 252 250 248 247 248 248 249 248 247 246 247 248 250 250 251 251 251 253 255 257 260 266 268
254 256 255 253 249 248 247 242 238 234 221 213 216 216 212 215 217 213 222 234 235 229 229 238 250 259 275 291 295 295 297 298 303 308 307 308 339 24 42 46 46 46 45 42 34 17 298 244 235 235 239 245 251 255 258 258 255 252 253 255 258 259 254 251 252 250 249 250 250 250 247 244 244 245 248 249 250 251 253 254 255 254 253 254 257
258 258 253 251 251 251 249 241 235 231 220 209 208 210 210 213 215 209 209 220 221 216 219 230 239 247 262 278 289 296 298 297 299 304 306 307 314 348 29 38 40 42 41 43 44 38 25 359 247 234 236 242 249 254 258 260 260 258 257 259 260 260 258 255 254 252 251 252 252 253 253 250 246 244 245 248 249 250 251 253 255 255 254 253 251
262 264 255 252 255 254 247 234 230 229 220 208 203 202 203 207 210 206 205 210 210 208 211 217 226 237 250 261 275 286 291 295 296 296 301 303 299 306 342 12 25 28 28 29 32 31 26 20 10 341 271 256 256 258 262 263 264 263 259 260 261 261 260 257 254 253 251 250 251 251 251 251 251 250 249 250 250 250 251 252 253 253 253 252 251
273 282 270 257 252 248 237 228 228 228 217 205 198 196 198 202 206 207 208 210 207 206 208 211 218 227 235 245 257 269 282 288 290 293 295 294 291 293 303 320 346 7 13 12 13 19 20 17 14 7 356 333 301 287 285 283 282 280 273 267 265 266 265 263 260 259 258 257 256 255 255 255 255 254 254 255 255 255 255 256 257 257 256 255 253
296 301 288 258 240 230 223 220 221 216 206 200 196 196 198 201 206 209 212 212 210 210 212 216 223 227 230 237 246 258 272 279 283 288 288 284 284 288 293 297 305 320 340 349 351 1 9 11 13 10 5 0 347 330 320 315 313 313 312 305 292 283 279 275 272 269 267 267 265 264 263 263 263 262 262 262 262 262 262 262 262 262 262 260 259
312 306 299 256 230 220 214 209 204 201 198 198 197 198 200 203 207 211 213 214 216 217 219 222 225 227 229 234 239 249 261 272 279 279 279 279 279 282 285 287 290 293 299 314 322 333 348 357 4 7 7 6 360 349 338 330 328 328 327 326 321 313 304 296 290 284 280 277 275 273 271 270 269 267 266 266 266 267 267 267 267 267 266 265 262
315 307 284 248 225 216 211 205 201 200 200 202 204 204 205 206 210 213 216 219 221 223 224 224 223 225 228 232 236 242 251 262 270 271 271 274 276 277 277 276 279 283 285 290 296 305 317 329 343 353 357 1 2 358 353 345 339 334 330 329 326 323 320 314 308 302 296 291 287 284 282 281 278 276 273 271 270 270 270 271 272 272 272 272 271
309 313 297 268 253 249 246 229 215 210 207 210 214 214 213 213 215 217 220 224 224 225 227 226 223 224 228 231 234 239 244 249 257 264 267 270 274 275 275 274 274 276 279 281 282 290 299 305 314 328 337 345 350 352 354 353 348 343 338 332 327 323 321 318 314 309 304 300 296 293 290 288 285 283 281 279 278 277 275 275 276 276 276 277 278
291 301 302 288 262 252 251 246 243 245 242 232 221 218 220 221 223 226 229 231 230 226 227 227 225 225 226 228 231 234 238 242 247 254 259 264 268 270 271 272 272 273 275 277 278 283 289 294 299 306 314 322 330 335 340 343 343 343 341 335 328 323 318 313 309 306 305 302 299 294 291 289 287 285 283 281 281 281 282 282 281 280 279 278 279
266 273 271 274 266 251 244 238 240 248 254 252 242 239 238 227 224 228 236 243 243 234 227 226 226 226 224 225 227 229 232 235 239 245 251 255 260 264 266 267 267 269 271 274 275 276 280 286 291 294 298 303 309 315 321 326 330 332 332 330 327 323 319 314 308 304 301 299 296 293 290 287 285 284 283 282 281 280 280 281 281 281 280 278 277
241 247 248 245 244 248 250 247 248 248 247 246 244 248 253 243 230 229 235 246 252 244 233 229 230 230 228 226 225 226 228 230 232 236 241 245 249 254 259 261 263 264 266 269 271 272 274 277 281 284 287 291 295 300 305 310 315 319 321 321 321 320 319 318 315 310 305 300 297 295 292 290 288 287 286 285 284 284 284 283 283 283 283 281 279
228 231 234 232 230 232 242 250 254 250 244 241 241 242 245 241 234 233 235 242 251 249 240 236 234 235 238 237 231 228 228 229 230 232 235 238 240 244 248 253 258 259 261 264 267 269 270 272 274 276 279 282 286 289 292 296 300 305 308 310 312 312 313 314 314 312 310 306 301 297 294 292 291 290 289 288 288 288 288 289 289 289 288 287 286
224 224 225 225 223 222 227 234 240 241 238 236 237 237 237 234 233 236 237 239 245 244 238 235 234 236 245 250 245 239 235 234 234 234 234 236 237 240 244 246 250 255 257 260 262 265 268 270 272 274 276 278 279 281 282 284 287 292 296 300 302 303 305 307 307 308 307 305 302 299 296 293 292 290 289 289 288 288 288 289 289 289 289 289 288
223 225 225 226 227 224 223 225 230 234 235 235 237 237 236 235 236 239 239 238 238 236 232 232 233 238 248 254 254 249 245 243 244 242 244 245 243 242 244 244 246 249 252 255 258 262 265 267 269 271 272 272 273 274 274 276 278 281 286 290 293 296 298 300 301 302 303 302 301 300 298 295 293 291 289 288 288 288 288 288 288 288 288 288 287
228 231 234 236 238 239 238 237 237 238 239 241 243 244 243 241 241 242 242 240 236 232 232 232 234 240 248 252 254 256 255 255 255 253 255 257 254 250 249 248 246 247 250 255 257 259 262 265 268 269 270 270 270 270 271 273 275 276 279 283 286 289 292 294 297 299 300 299 299 299 299 297 295 294 292 291 289 288 287 287 287 287 286 286 286
246 246 248 251 254 256 258 258 257 254 252 251 252 254 253 251 251 250 248 247 243 239 238 238 240 247 254 257 260 264 266 267 268 266 265 264 258 254 255 254 251 252 256 259 258 257 259 263 266 269 271 271 270 269 268 268 270 273 277 282 285 287 289 292 295 297 297 297 296 297 297 296 295 295 295 294 292 291 289 287 286 285 284 284 284
266 264 262 263 265 267 269 269 269 268 267 266 265 266 266 264 263 260 258 256 254 251 248 245 246 252 259 263 266 267 267 268 270 268 267 266 258 254 256 257 257 257 259 259 258 257 260 263 265 267 269 271 272 272 271 270 272 275 279 284 286 287 290 292 294 295 295 295 294 295 296 296 295 294 294 294 295 294 293 291 289 286 284 283 283
272 272 271 271 271 272 272 273 274 273 271 270 269 271 273 273 272 271 269 267 265 264 263 259 257 258 260 262 264 265 266 267 267 266 266 264 260 256 257 258 258 258 259 260 260 260 262 264 264 265 268 271 275 279 280 280 280 279 279 282 285 287 288 290 291 292 293 292 291 291 293 296 296 294 292 292 293 294 293 292 291 290 288 286 285
272 271 271 271 271 271 271 273 274 272 271 270 271 272 273 274 275 275 275 274 272 271 271 270 268 266 265 263 262 262 262 263 265 265 264 263 262 260 259 258 258 258 259 260 259 259 261 262 264 267 270 272 274 278 281 281 278 274 274 279 283 285 285 285 287 288 289 289 289 287 288 291 295 296 293 290 290 291 291 291 290 290 290 289 288
269 267 265 265 265 266 268 271 270 267 268 270 270 271 271 272 273 274 275 275 274 273 274 274 273 271 269 268 267 265 265 264 264 264 262 261 261 260 259 258 257 257 258 258 258 258 259 262 266 270 273 273 273 276 278 277 274 272 274 278 280 281 281 281 282 284 285 286 286 284 283 285 290 295 294 291 288 287 286 287 287 288 288 289 289
264 262 261 260 259 259 261 262 260 258 261 264 266 268 270 271 271 271 271 272 272 272 272 272 271 270 269 269 270 270 270 269 267 264 262 261 261 261 260 259 259 258 258 259 260 261 261 263 265 269 271 272 273 274 275 276 276 275 277 278 278 278 278 278 278 280 280 281 283 283 281 280 284 291 295 293 290 286 283 282 282 284 286 287 288
259 257 256 255 254 253 252 252 253 255 258 263 266 269 272 274 274 273 272 271 271 270 269 268 268 267 268 269 270 270 270 269 267 266 265 264 263 263 262 262 263 263 262 263 264 265 265 265 266 267 269 271 272 272 272 274 276 277 278 278 277 276 275 274 275 276 277 279 280 282 281 280 282 287 292 292 291 288 285 281 279 279 281 283 284
250 250 250 250 250 251 252 254 257 260 264 268 270 272 273 274 274 273 272 271 270 270 270 269 269 269 270 270 269 268 268 267 267 266 266 267 266 265 264 264 264 264 265 266 267 267 268 268 268 268 268 269 271 272 272 274 276 277 278 276 275 273 272 272 274 276 277 279 281 282 282 282 283 286 289 290 290 289 287 285 282 281 281 281 281
243 244 246 248 249 251 254 258 261 264 267 270 272 273 274 273 272 269 268 267 267 267 268 269 270 270 270 270 270 269 269 268 267 267 267 267 267 267 267 266 265 264 264 265 266 267 267 268 269 269 269 269 270 271 272 273 274 274 274 273 272 271 271 273 275 277 279 281 282 283 284 285 285 286 288 288 288 289 288 288 286 285 284 284 284
241 243 245 247 249 252 256 259 263 266 269 270 271 272 272 270 268 267 266 265 265 266 267 268 268 268 267 268 269 269 270 269 269 268 268 268 268 268 268 267 267 266 266 265 265 265 265 266 266 266 267 268 269 269 270 271 270 270 271 271 270 270 271 273 276 278 280 282 283 285 286 286 287 288 288 288 289 289 289 289 289 288 287 286 286
241 243 245 248 251 255 259 262 265 267 269 270 270 271 270 269 268 267 267 268 269 269 270 270 269 268 267 267 268 268 269 269 269 269 269 268 267 267 267 267 267 267 267 267 267 266 266 267 267 266 267 267 268 268 269 269 270 270 271 271 272 272 273 275 276 278 281 283 284 284 285 287 289 290 290 291 291 292 292 291 290 290 289 288 288
244 247 250 253 256 259 261 263 265 267 269 270 270 270 270 270 271 271 272 273 274 274 275 274 273 272 271 269 268 268 268 269 269 270 270 269 268 267 266 266 266 266 267 266 267 267 268 268 268 268 269 268 268 268 268 268 270 271 272 274 274 276 278 277 277 279 283 284 284 284 286 289 290 290 292 294 294 294 293 292 292 292 291 291 291
248 250 253 256 259 261 262 263 264 264 266 268 269 269 269 270 273 276 277 278 280 281 281 279 277 276 274 272 270 269 268 268 269 269 270 270 270 269 267 266 265 265 266 266 266 266 267 267 268 268 268 267 266 265 265 266 268 271 273 275 275 276 279 280 280 282 285 286 286 285 287 290 290 289 292 293 293 292 293 293 293 293 292 292 292
251 254 256 258 260 261 261 262 263 264 265 266 267 268 268 270 274 277 279 283 287 288 288 286 283 281 277 274 272 270 269 268 268 269 270 272 272 272 270 268 266 265 265 266 266 266 265 265 266 265 263 261 258 259 262 265 268 270 271 272 274 275 277 279 281 282 284 285 285 285 288 290 290 290 292 291 290 290 291 292 292 292 292 292 291
257 259 260 261 262 262 262 262 263 265 266 267 268 268 270 272 274 276 280 285 288 289 289 288 285 282 279 276 274 272 270 269 268 269 270 272 273 272 270 268 266 264 263 264 264 263 262 260 260 259 257 254 252 256 260 263 265 266 266 269 272 275 277 280 281 281 283 284 284 286 288 290 290 291 291 290 289 290 290 290 290 290 291 290 290
260 261 263 263 263 263 263 262 263 265 269 271 272 273 274 275 277 279 283 286 286 287 287 286 283 280 278 277 275 273 271 269 268 268 269 270 271 269 266 264 262 260 259 260 260 258 255 253 254 254 254 253 252 254 257 259 261 263 265 269 273 276 278 280 281 282 284 285 286 287 287 287 288 289 289 289 288 288 288 288 288 288 288 288 288
263 264 266 268 269 269 269 269 269 271 273 276 277 277 278 279 280 281 284 284 284 284 283 281 279 277 276 275 274 273 271 268 266 265 266 267 267 264 262 260 259 256 255 254 254 252 249 247 249 253 256 255 254 253 254 255 258 262 266 270 273 276 278 281 282 283 285 285 286 285 285 286 287 288 288 288 288 288 288 287 287 287 287 287 286
271 271 272 273 275 277 278 277 277 278 278 279 280 279 279 279 280 281 281 281 280 280 278 276 275 274 273 273 272 270 268 266 263 262 263 264 263 261 260 260 257 253 251 249 248 247 245 243 246 251 254 252 250 248 249 252 256 261 265 270 274 276 278 280 282 283 284 285 285 285 285 287 288 289 289 290 290 289 289 289 288 288 287 287 286
275 276 276 276 277 279 279 279 279 280 279 279 279 279 280 280 280 281 281 280 280 278 276 275 274 272 271 270 269 267 265 263 261 261 262 262 260 259 260 259 256 251 249 246 244 242 242 241 242 243 243 243 244 245 249 255 260 265 269 273 276 277 278 280 281 283 285 286 286 287 288 289 289 289 289 289 289 288 288 287 287 286 285 284 284
275 276 276 276 276 276 277 278 278 278 278 278 278 280 281 281 282 283 283 282 280 278 276 275 273 272 271 270 268 265 262 261 261 261 260 259 258 257 255 253 251 248 246 244 240 238 237 238 238 237 236 238 243 247 253 260 265 268 271 274 277 279 280 282 284 286 287 288 288 289 289 288 288 288 287 287 287 286 286 285 283 282 281 280 280
274 274 274 274 275 275 277 278 279 279 280 279 280 280 279 280 283 285 283 281 279 278 278 277 275 273 272 271 267 263 260 259 258 257 257 256 254 251 247 244 242 241 241 239 236 233 232 231 232 233 235 241 248 254 259 263 266 269 272 276 279 282 284 286 287 288 288 289 289 289 288 288 288 288 287 287 286 285 284 283 281 280 279 279 278
276 276 275 275 275 276 278 279 280 281 280 279 278 278 278 280 282 282 281 280 280 280 280 279 277 275 272 268 263 259 255 252 251 251 250 247 242 237 231 227 226 230 233 231 228 226 225 226 229 233 239 245 252 257 262 266 269 273 277 280 282 284 285 287 288 289 289 290 291 291 291 291 290 290 289 288 287 286 285 284 283 282 280 279 278
278 277 277 277 277 278 278 278 278 279 279 279 278 277 277 279 281 280 280 280 281 280 279 278 276 272 267 261 255 250 246 243 241 238 230 223 221 219 214 210 210 214 216 215 214 215 218 221 225 231 239 246 251 257 262 268 272 276 279 280 282 284 286 288 290 292 293 294 295 296 297 297 296 294 293 291 290 289 288 287 286 285 283 282 280
276 275 275 275 275 276 275 276 277 279 280 280 278 276 278 281 281 281 281 281 280 279 279 277 271 264 255 246 239 234 231 228 224 217 208 201 198 197 196 197 199 200 201 202 203 206 210 216 224 232 241 248 255 261 267 271 274 276 278 280 284 288 291 294 297 300 302 304 305 306 305 304 302 299 297 295 293 291 290 288 287 285 284 283 280
274 274 274 274 274 273 273 274 276 279 280 279 277 277 281 283 283 283 283 282 280 278 273 265 252 235 221 213 208 206 205 204 201 196 192 190 189 183 179 180 186 190 191 192 195 202 211 220 229 239 247 254 259 263 266 269 272 276 281 288 294 298 302 306 310 314 315 315 315 314 313 310 307 304 301 299 297 295 293 290 288 286 284 282 279
Height
3129 3131 3132 3133 3133 3134 3134 3134 3135 3135 3136 3137 3137 3136 3136 3136 3136 3136 3135 3135 3135 3134 3134 3133 3132 3132 3131 3130 3130 3130 3130 3130 3130 3130 3130 3130 3130 3130 3131 3131 3132 3133 3133 3133 3134 3135 3136 3136 3136 3137 3138 3138 3138 3138 3139 3139 3139 3139 3139 3140 3140 3140 3141 3142 3143 3143 3144 3144 3145 3145 3146 3147 3149 3149 3151 3153 3154 3155 3156 3157 3159 3159 3160 3161 3162
3127 3129 3130 3131 3132 3132 3133 3133 3133 3134 3135 3135 3136 3136 3135 3135 3135 3135 3135 3134 3134 3134 3133 3133 3132 3131 3130 3130 3129 3129 3129 3129 3129 3129 3128 3129 3129 3129 3129 3130 3130 3131 3131 3132 3132 3133 3134 3134 3134 3134 3135 3135 3136 3136 3137 3138 3138 3138 3138 3138 3138 3138 3139 3140 3141 3142 3142 3142 3143 3144 3144 3145 3146 3146 3147 3150 3151 3152 3153 3155 3156 3157 3158 3159 3160
3125 3127 3128 3129 3130 3131 3131 3131 3132 3132 3133 3134 3134 3135 3135 3134 3134 3134 3134 3134 3133 3133 3133 3132 3132 3131 3130 3129 3129 3128 3128 3128 3128 3128 3128 3128 3128 3128 3128 3129 3129 3129 3130 3130 3131 3131 3132 3132 3132 3132 3132 3133 3134 3134 3134 3135 3136 3136 3137 3137 3137 3137 3138 3138 3139 3140 3140 3141 3141 3142 3142 3143 3144 3144 3145 3146 3148 3149 3151 3152 3153 3154 3156 3156 3157
3123 3124 3125 3126 3128 3128 3129 3129 3130 3130 3131 3132 3133 3134 3134 3133 3133 3133 3133 3133 3133 3132 3132 3132 3131 3130 3130 3129 3129 3128 3128 3128 3127 3127 3127 3127 3127 3127 3127 3128 3128 3128 3128 3129 3129 3130 3130 3130 3130 3130 3130 3131 3132 3132 3132 3133 3135 3135 3135 3136 3136 3136 3137 3138 3138 3139 3139 3139 3140 3140 3140 3141 3142 3143 3144 3145 3146 3147 3148 3150 3151 3152 3153 3154 3155
3120 3121 3122 3124 3125 3126 3126 3127 3128 3128 3129 3130 3131 3132 3132 3132 3132 3132 3132 3132 3132 3132 3131 3131 3130 3130 3129 3129 3128 3128 3127 3127 3127 3127 3127 3127 3127 3127 3127 3127 3127 3127 3128 3128 3128 3129 3129 3129 3129 3129 3129 3130 3130 3130 3131 3132 3133 3133 3133 3134 3134 3134 3135 3136 3137 3138 3138 3138 3138 3139 3139 3140 3140 3142 3143 3143 3144 3145 3146 3148 3148 3149 3150 3151 3152
3118 3119 3120 3121 3122 3123 3124 3124 3125 3126 3127 3128 3130 3131 3131 3131 3131 3131 3131 3131 3131 3131 3131 3130 3130 3129 3129 3129 3128 3128 3127 3127 3126 3127 3127 3127 3127 3127 3127 3127 3127 3127 3127 3127 3127 3128 3128 3128 3128 3128 3128 3128 3129 3129 3129 3130 3131 3132 3132 3132 3133 3133 3134 3135 3136 3137 3137 3137 3137 3137 3138 3139 3140 3140 3141 3142 3142 3143 3145 3145 3145 3146 3147 3147 3149
3117 3118 3118 3119 3119 3120 3120 3121 3122 3124 3125 3127 3128 3129 3129 3129 3130 3130 3130 3130 3130 3130 3130 3130 3129 3129 3129 3128 3128 3128 3127 3127 3127 3127 3127 3127 3127 3127 3127 3127 3127 3127 3127 3127 3127 3127 3127 3127 3127 3127 3127 3127 3127 3128 3128 3129 3129 3130 3130 3130 3131 3132 3132 3133 3134 3135 3135 3136 3136 3136 3136 3137 3138 3139 3140 3141 3141 3142 3143 3142 3142 3144 3145 3146 3147
3115 3116 3117 3117 3117 3117 3118 3118 3120 3121 3123 3124 3126 3127 3128 3128 3128 3128 3128 3129 3129 3129 3129 3129 3129 3129 3129 3128 3128 3128 3127 3127 3127 3127 3127 3127 3126 3126 3126 3126 3126 3126 3126 3126 3126 3126 3126 3126 3126 3126 3126 3126 3126 3127 3127 3128 3128 3128 3129 3129 3129 3130 3131 3131 3132 3132 3133 3134 3135 3135 3135 3135 3136 3137 3138 3139 3140 3140 3141 3140 3140 3142 3144 3145 3145
3113 3113 3114 3114 3114 3115 3115 3116 3117 3118 3120 3122 3124 3125 3126 3127 3127 3127 3127 3127 3128 3128 3128 3128 3129 3129 3128 3128 3127 3128 3127 3127 3126 3126 3126 3126 3126 3126 3125 3125 3125 3125 3125 3125 3125 3125 3126 3126 3126 3126 3126 3126 3125 3126 3126 3127 3127 3127 3127 3127 3128 3128 3129 3129 3130 3130 3131 3132 3133 3133 3134 3134 3135 3136 3137 3138 3138 3139 3139 3139 3139 3140 3141 3141 3142
3110 3110 3111 3111 3111 3111 3112 3113 3113 3114 3116 3118 3121 3123 3124 3125 3125 3125 3126 3126 3127 3127 3127 3127 3128 3128 3128 3127 3127 3127 3127 3127 3127 3126 3126 3126 3125 3125 3125 3124 3124 3124 3124 3124 3124 3124 3125 3125 3125 3125 3125 3125 3125 3125 3125 3126 3126 3126 3126 3126 3127 3127 3127 3128 3128 3129 3129 3130 3130 3131 3132 3132 3133 3134 3134 3136 3137 3137 3137 3137 3138 3138 3138 3139 3140
3107 3107 3107 3107 3107 3107 3108 3109 3110 3111 3113 3115 3117 3120 3122 3123 3123 3124 3124 3125 3126 3126 3126 3126 3126 3127 3127 3127 3126 3126 3127 3127 3126 3126 3126 3125 3125 3125 3124 3124 3124 3123 3123 3123 3123 3123 3123 3124 3124 3124 3124 3124 3124 3124 3124 3125 3125 3125 3125 3125 3126 3126 3126 3126 3127 3127 3127 3128 3128 3129 3129 3130 3131 3131 3132 3133 3134 3134 3135 3135 3136 3137 3137 3137 3138
3104 3104 3103 3103 3103 3103 3104 3105 3107 3108 3110 3111 3113 3116 3119 3120 3121 3122 3123 3124 3124 3125 3125 3125 3125 3126 3126 3126 3126 3125 3126 3126 3126 3126 3125 3125 3125 3124 3124 3124 3123 3123 3123 3123 3123 3122 3123 3123 3123 3123 3123 3123 3123 3123 3123 3124 3124 3124 3125 3125 3125 3125 3125 3125 3126 3126 3126 3126 3126 3127 3127 3128 3129 3129 3130 3130 3131 3131 3132 3132 3133 3134 3134 3135 3136
3101 3101 3100 3100 3099 3100 3100 3101 3103 3105 3107 3108 3110 3113 3116 3118 3119 3120 3121 3122 3123 3123 3124 3124 3124 3124 3125 3125 3125 3125 3124 3125 3125 3125 3125 3124 3124 3124 3123 3123 3123 3123 3123 3122 3122 3122 3122 3122 3122 3122 3122 3123 3123 3123 3123 3123 3123 3123 3124 3124 3124 3124 3124 3125 3125 3125 3125 3126 3126 3126 3126 3126 3127 3127 3128 3128 3128 3129 3129 3130 3130 3131 3131 3132 3133
3099 3098 3097 3096 3096 3096 3097 3098 3099 3101 3103 3105 3107 3110 3113 3115 3117 3118 3119 3120 3121 3122 3122 3123 3123 3123 3123 3124 3124 3124 3124 3123 3124 3124 3124 3124 3123 3123 3123 3123 3122 3122 3122 3122 3122 3122 3122 3122 3122 3122 3122 3122 3122 3122 3122 3122 3122 3123 3123 3123 3123 3123 3124 3124 3124 3125 3125 3125 3125 3125 3125 3125 3126 3126 3126 3126 3127 3127 3127 3127 3128 3128 3129 3129 3130
3097 3096 3095 3094 3093 3093 3094 3095 3096 3098 3100 3102 3105 3107 3110 3112 3114 3116 3117 3118 3119 3120 3121 3121 3122 3122 3122 3122 3122 3122 3123 3123 3122 3123 3123 3123 3123 3123 3122 3122 3122 3122 3122 3121 3121 3121 3121 3121 3121 3121 3121 3121 3121 3121 3121 3121 3121 3121 3122 3122 3122 3122 3122 3123 3123 3123 3124 3124 3124 3124 3124 3125 3125 3125 3125 3125 3125 3125 3125 3125 3126 3126 3127 3127 3128
3096 3095 3093 3092 3091 3091 3092 3093 3094 3095 3098 3100 3103 3105 3107 3110 3112 3113 3115 3116 3117 3118 3119 3120 3120 3121 3121 3121 3121 3121 3121 3122 3122 3122 3122 3122 3122 3122 3122 3121 3121 3121 3121 3121 3121 3121 3121 3121 3121 3121 3120 3120 3120 3120 3120 3120 3120 3120 3121 3121 3121 3121 3121 3121 3121 3122 3122 3122 3122 3122 3123 3123 3123 3124 3124 3124 3124 3124 3124 3124 3124 3124 3125 3125 3126
3095 3094 3093 3092 3091 3092 3092 3093 3094 3095 3096 3099 3101 3103 3105 3107 3108 3110 3111 3113 3114 3115 3116 3117 3118 3119 3120 3120 3120 3120 3120 3121 3121 3121 3120 3120 3121 3121 3121 3121 3120 3120 3120 3120 3120 3120 3120 3120 3120 3120 3120 3120 3120 3120 3120 3119 3119 3119 3120 3120 3120 3120 3120 3120 3120 3120 3120 3120 3120 3120 3121 3121 3121 3122 3122 3122 3122 3122 3122 3122 3122 3122 3123 3123 3124
3094 3093 3093 3092 3092 3092 3093 3093 3094 3095 3096 3098 3100 3101 3102 3104 3105 3107 3108 3110 3111 3113 3113 3115 3116 3117 3118 3118 3119 3119 3119 3119 3119 3119 3119 3119 3119 3119 3119 3119 3119 3119 3119 3119 3119 3119 3119 3119 3119 3119 3119 3119 3119 3119 3119 3119 3119 3119 3118 3118 3118 3118 3119 3119 3118 3118 3118 3118 3118 3118 3119 3119 3119 3119 3119 3120 3120 3120 3120 3120 3120 3120 3120 3121 3121
3092 3092 3092 3091 3091 3091 3092 3093 3093 3094 3096 3097 3098 3099 3101 3102 3103 3104 3105 3106 3108 3109 3110 3112 3113 3114 3115 3116 3117 3117 3117 3118 3118 3118 3118 3118 3118 3118 3118 3118 3118 3117 3117 3118 3118 3118 3118 3118 3118 3119 3119 3119 3119 3118 3118 3118 3118 3118 3118 3118 3117 3117 3117 3117 3117 3117 3116 3116 3117 3117 3117 3117 3116 3116 3117 3117 3117 3118 3118 3118 3119 3119 3119 3119 3119
3091 3091 3091 3090 3090 3090 3091 3092 3092 3093 3094 3095 3096 3097 3099 3100 3101 3102 3102 3103 3105 3106 3107 3108 3109 3110 3112 3113 3114 3115 3115 3116 3116 3116 3116 3116 3116 3116 3116 3116 3116 3116 3116 3116 3116 3116 3117 3117 3117 3117 3118 3118 3118 3118 3118 3118 3118 3118 3117 3117 3116 3116 3116 3115 3115 3115 3115 3115 3115 3115 3115 3115 3115 3115 3114 3114 3115 3115 3115 3116 3116 3116 3117 3117 3117
3090 3090 3090 3090 3090 3090 3091 3092 3092 3093 3093 3094 3094 3095 3097 3097 3098 3099 3100 3101 3102 3103 3104 3105 3106 3107 3108 3109 3111 3111 3112 3113 3113 3114 3114 3114 3115 3115 3114 3114 3114 3114 3114 3114 3114 3115 3115 3115 3115 3116 3116 3117 3117 3117 3117 3117 3117 3117 3116 3116 3115 3115 3114 3114 3114 3114 3113 3113 3113 3113 3113 3113 3113 3113 3113 3113 3113 3113 3113 3113 3113 3114 3114 3114 3115
3089 3089 3089 3089 3089 3090 3090 3091 3092 3092 3092 3093 3093 3094 3095 3096 3097 3098 3098 3099 3100 3101 3101 3102 3103 3104 3105 3106 3107 3108 3108 3109 3110 3110 3111 3112 3112 3112 3112 3112 3112 3112 3112 3112 3112 3112 3113 3113 3113 3114 3114 3115 3115 3115 3115 3116 3116 3116 3115 3115 3114 3114 3113 3113 3113 3112 3112 3112 3111 3111 3111 3110 3110 3110 3110 3110 3110 3110 3110 3110 3110 3110 3110 3111 3111
3087 3087 3087 3087 3087 3088 3088 3089 3090 3090 3090 3091 3091 3092 3093 3093 3095 3096 3096 3097 3097 3098 3099 3100 3101 3102 3102 3103 3104 3104 3105 3105 3106 3106 3107 3108 3108 3109 3109 3110 3110 3109 3109 3109 3109 3109 3110 3111 3111 3112 3112 3112 3113 3113 3113 3113 3113 3114 3113 3113 3113 3112 3112 3112 3112 3111 3111 3110 3110 3109 3109 3108 3108 3108 3108 3107 3107 3107 3107 3107 3107 3107 3106 3107 3107
3086 3086 3086 3086 3086 3086 3086 3087 3087 3088 3088 3089 3089 3089 3090 3091 3092 3093 3093 3094 3095 3095 3096 3097 3098 3099 3100 3100 3101 3101 3102 3102 3102 3103 3103 3104 3105 3105 3106 3106 3107 3107 3107 3107 3107 3107 3107 3108 3108 3109 3110 3110 3110 3111 3111 3111 3111 3111 3111 3111 3111 3111 3110 3110 3110 3110 3109 3109 3108 3108 3107 3107 3106 3106 3105 3105 3104 3104 3104 3104 3104 3103 3103 3103 3103
3084 3084 3084 3084 3084 3084 3084 3085 3085 3086 3086 3086 3087 3087 3088 3088 3089 3090 3090 3091 3092 3092 3093 3094 3095 3097 3097 3097 3098 3098 3099 3100 3100 3100 3101 3102 3102 3102 3102 3103 3103 3104 3104 3104 3104 3104 3104 3104 3105 3106 3106 3107 3107 3108 3108 3108 3108 3108 3108 3108 3108 3108 3108 3108 3107 3107 3107 3107 3106 3106 3106 3105 3104 3104 3103 3103 3102 3102 3101 3101 3100 3100 3099 3099 3099
3081 3082 3082 3082 3082 3083 3083 3083 3083 3084 3084 3084 3084 3085 3085 3086 3087 3087 3087 3088 3089 3090 3091 3091 3092 3093 3093 3094 3094 3095 3095 3096 3097 3098 3099 3100 3099 3099 3099 3100 3100 3100 3100 3100 3101 3101 3101 3101 3101 3102 3102 3103 3104 3104 3105 3105 3105 3106 3106 3105 3105 3105 3105 3105 3104 3104 3104 3104 3104 3103 3103 3102 3102 3101 3101 3100 3100 3099 3098 3098 3097 3096 3096 3095 3095
3079 3080 3080 3080 3081 3081 3081 3081 3081 3082 3082 3082 3082 3083 3083 3084 3084 3085 3085 3086 3086 3087 3088 3088 3089 3089 3090 3090 3092 3092 3093 3093 3094 3094 3095 3096 3096 3096 3096 3096 3097 3097 3096 3097 3098 3098 3098 3099 3098 3098 3099 3099 3100 3100 3101 3101 3102 3103 3103 3103 3102 3102 3101 3101 3101 3101 3101 3100 3100 3100 3099 3099 3098 3098 3098 3097 3097 3096 3095 3095 3094 3093 3092 3091 3091
3077 3078 3078 3078 3078 3079 3079 3079 3079 3079 3080 3080 3080 3080 3081 3081 3082 3082 3083 3083 3084 3084 3085 3085 3086 3086 3086 3087 3087 3088 3089 3089 3090 3090 3091 3092 3092 3092 3092 3093 3093 3093 3093 3094 3095 3095 3095 3096 3095 3095 3095 3095 3096 3096 3097 3098 3099 3100 3100 3099 3098 3098 3098 3097 3097 3097 3097 3096 3096 3096 3095 3095 3095 3094 3094 3093 3093 3092 3092 3091 3090 3089 3088 3087 3087
3075 3075 3075 3076 3076 3076 3076 3077 3077 3077 3077 3077 3077 3078 3078 3078 3079 3079 3079 3080 3080 3081 3081 3082 3082 3083 3083 3083 3084 3085 3085 3086 3086 3087 3087 3088 3088 3089 3089 3089 3089 3090 3090 3090 3091 3091 3092 3092 3091 3090 3091 3092 3092 3092 3093 3095 3096 3096 3095 3095 3094 3094 3094 3093 3093 3092 3092 3092 3092 3091 3091 3091 3091 3090 3089 3089 3088 3087 3087 3086 3086 3085 3083 3083 3082
3071 3071 3072 3072 3073 3073 3073 3074 3074 3074 3074 3074 3075 3075 3075 3075 3076 3076 3076 3077 3077 3077 3078 3078 3078 3079 3079 3080 3081 3081 3082 3082 3083 3083 3083 3084 3084 3084 3084 3085 3085 3085 3085 3085 3086 3087 3088 3088 3087 3086 3087 3088 3088 3088 3089 3090 3090 3090 3090 3090 3090 3090 3089 3089 3089 3088 3088 3087 3087 3087 3086 3086 3086 3086 3085 3084 3084 3083 3082 3081 3080 3080 3078 3077 3077
3067 3068 3068 3068 3069 3069 3069 3070 3071 3071 3071 3071 3072 3072 3072 3072 3073 3073 3073 3073 3073 3073 3074 3074 3074 3075 3075 3075 3076 3077 3077 3078 3078 3079 3079 3079 3079 3079 3080 3080 3080 3080 3080 3080 3081 3082 3083 3083 3082 3082 3083 3083 3083 3084 3085 3085 3085 3085 3085 3085 3086 3085 3085 3085 3084 3084 3083 3082 3082 3082 3081 3081 3081 3081 3080 3079 3079 3078 3077 3076 3075 3074 3073 3072 3071
3064 3064 3064 3065 3065 3066 3066 3066 3068 3068 3068 3068 3068 3069 3069 3069 3069 3070 3070 3070 3070 3070 3070 3070 3070 3070 3071 3071 3071 3071 3072 3072 3073 3073 3074 3074 3074 3075 3075 3076 3076 3076 3076 3075 3076 3077 3078 3078 3078 3078 3078 3079 3079 3080 3080 3079 3079 3079 3080 3080 3081 3080 3080 3080 3079 3079 3078 3077 3076 3076 3076 3075 3075 3075 3075 3074 3073 3072 3071 3070 3070 3069 3068 3067 3066
3060 3061 3061 3061 3062 3062 3063 3064 3064 3065 3065 3065 3065 3065 3066 3066 3066 3066 3066 3066 3066 3066 3066 3066 3067 3067 3067 3067 3067 3067 3067 3067 3068 3068 3068 3069 3069 3070 3070 3071 3071 3071 3071 3071 3071 3072 3073 3074 3074 3074 3074 3074 3074 3075 3075 3074 3074 3075 3075 3075 3075 3075 3075 3074 3073 3073 3072 3072 3071 3070 3070 3069 3069 3069 3069 3068 3067 3066 3065 3064 3063 3063 3063 3062 3061
3057 3057 3057 3058 3058 3059 3060 3060 3061 3061 3061 3061 3062 3062 3062 3062 3062 3062 3062 3062 3062 3062 3062 3062 3062 3062 3062 3062 3062 3062 3062 3062 3063 3063 3063 3064 3064 3064 3065 3066 3066 3066 3066 3067 3067 3067 3068 3069 3069 3069 3069 3069 3070 3069 3069 3069 3069 3070 3070 3070 3069 3069 3069 3068 3068 3067 3067 3066 3065 3065 3064 3064 3064 3063 3063 3062 3061 3060 3058 3057 3056 3056 3056 3055 3055
3053 3053 3054 3055 3055 3056 3056 3057 3057 3057 3057 3057 3058 3058 3058 3059 3059 3059 3059 3059 3059 3058 3058 3058 3058 3058 3058 3058 3058 3057 3057 3058 3058 3059 3059 3059 3059 3059 3060 3060 3061 3061 3061 3061 3062 3062 3062 3063 3064 3064 3063 3064 3064 3064 3064 3064 3065 3065 3065 3064 3063 3063 3063 3063 3063 3062 3062 3061 3060 3060 3059 3058 3058 3057 3057 3056 3055 3053 3052 3051 3050 3049 3049 3048 3047
3050 3050 3051 3052 3052 3052 3053 3053 3053 3053 3054 3054 3054 3054 3054 3054 3055 3055 3055 3055 3055 3055 3055 3055 3055 3054 3054 3054 3053 3053 3053 3053 3053 3054 3054 3054 3054 3055 3055 3055 3055 3055 3055 3056 3056 3057 3057 3058 3058 3058 3057 3058 3058 3058 3059 3059 3059 3059 3059 3058 3058 3058 3058 3058 3058 3057 3056 3056 3055 3054 3054 3053 3052 3051 3050 3049 3048 3047 3045 3044 3043 3043 3042 3042 3041
3047 3047 3048 3048 3049 3049 3049 3049 3049 3050 3050 3050 3050 3050 3050 3050 3050 3051 3051 3051 3051 3051 3051 3051 3051 3050 3050 3050 3050 3049 3049 3048 3048 3048 3049 3049 3049 3050 3050 3050 3050 3050 3050 3050 3051 3051 3052 3052 3052 3052 3052 3053 3052 3053 3053 3054 3053 3053 3053 3053 3053 3053 3053 3053 3053 3052 3051 3050 3049 3049 3049 3048 3046 3045 3043 3042 3041 3039 3038 3037 3036 3036 3035 3034 3034
3044 3044 3045 3045 3045 3045 3046 3046 3046 3046 3046 3046 3046 3045 3045 3045 3045 3046 3046 3046 3047 3047 3047 3047 3046 3046 3046 3045 3045 3045 3044 3044 3044 3043 3043 3044 3044 3044 3044 3044 3044 3045 3045 3045 3045 3045 3046 3046 3046 3046 3047 3047 3047 3047 3048 3048 3047 3048 3048 3048 3049 3049 3049 3048 3048 3047 3045 3045 3043 3043 3043 3042 3041 3039 3038 3036 3034 3032 3030 3029 3028 3028 3027 3027 3027
3041 3041 3041 3041 3042 3042 3042 3042 3042 3042 3042 3042 3041 3041 3041 3040 3041 3041 3041 3042 3042 3043 3043 3042 3042 3041 3041 3040 3040 3039 3039 3039 3038 3038 3038 3038 3038 3038 3038 3038 3039 3039 3039 3039 3040 3040 3040 3041 3041 3041 3042 3042 3042 3042 3042 3042 3043 3043 3044 3044 3045 3045 3044 3043 3042 3041 3040 3039 3038 3037 3036 3036 3035 3034 3033 3031 3028 3026 3024 3022 3021 3020 3019 3019 3019
3037 3037 3037 3037 3038 3038 3038 3038 3038 3038 3038 3038 3037 3037 3036 3036 3036 3036 3036 3037 3037 3037 3037 3036 3036 3036 3035 3035 3034 3034 3034 3033 3033 3033 3033 3033 3033 3033 3033 3033 3033 3033 3033 3034 3034 3035 3035 3035 3036 3037 3037 3037 3037 3037 3037 3038 3038 3039 3040 3040 3041 3040 3039 3039 3038 3036 3035 3034 3033 3032 3031 3029 3027 3027 3026 3025 3023 3020 3018 3016 3014 3012 3011 3011 3010
3034 3033 3034 3034 3034 3034 3034 3034 3033 3033 3034 3033 3033 3032 3031 3031 3031 3031 3032 3032 3032 3032 3031 3031 3030 3029 3029 3028 3028 3028 3027 3027 3027 3027 3027 3027 3028 3027 3027 3027 3028 3028 3028 3028 3029 3030 3030 3031 3031 3032 3032 3031 3032 3032 3033 3034 3034 3035 3036 3036 3036 3035 3035 3034 3033 3032 3031 3029 3028 3027 3025 3023 3021 3020 3019 3017 3016 3014 3012 3010 3008 3006 3004 3003 3001
3030 3030 3030 3030 3029 3029 3029 3029 3029 3029 3029 3029 3028 3027 3026 3026 3026 3026 3027 3027 3027 3026 3025 3025 3024 3023 3022 3022 3021 3021 3021 3021 3021 3021 3021 3021 3022 3022 3022 3022 3022 3022 3023 3023 3024 3025 3025 3025 3026 3026 3026 3026 3027 3028 3029 3029 3030 3031 3032 3032 3031 3031 3030 3029 3028 3026 3025 3024 3023 3021 3019 3018 3016 3014 3012 3010 3009 3007 3005 3003 3001 2999 2997 2995 2993
3026 3026 3026 3025 3024 3024 3024 3024 3024 3024 3024 3024 3023 3021 3021 3020 3020 3021 3022 3021 3020 3020 3019 3018 3017 3016 3016 3015 3015 3014 3014 3013 3014 3014 3014 3015 3016 3016 3016 3016 3017 3017 3018 3018 3019 3020 3020 3020 3020 3021 3022 3023 3024 3024 3025 3026 3027 3027 3028 3027 3026 3026 3025 3024 3022 3021 3020 3018 3017 3016 3014 3011 3010 3008 3005 3003 3001 2999 2997 2995 2993 2992 2990 2988 2986
3021 3021 3020 3020 3019 3019 3018 3018 3018 3018 3018 3018 3017 3015 3014 3013 3013 3015 3015 3014 3014 3013 3012 3010 3010 3009 3009 3009 3008 3007 3007 3007 3007 3007 3008 3009 3010 3010 3010 3011 3012 3012 3013 3013 3014 3015 3015 3016 3016 3018 3019 3020 3021 3022 3022 3023 3023 3023 3023 3022 3022 3021 3020 3019 3018 3016 3014 3013 3011 3009 3007 3005 3003 3000 2998 2995 2993 2991 2989 2987 2985 2983 2981 2979 2977
3016 3015 3015 3014 3014 3013 3012 3011 3012 3012 3012 3011 3010 3009 3007 3006 3006 3007 3007 3006 3006 3005 3003 3003 3003 3002 3002 3002 3001 3000 3000 3000 3000 3001 3002 3003 3003 3004 3005 3005 3006 3008 3008 3009 3010 3011 3012 3013 3014 3015 3016 3017 3018 3019 3019 3019 3020 3020 3019 3018 3017 3016 3015 3014 3013 3011 3009 3007 3005 3003 3001 2998 2996 2993 2990 2988 2986 2983 2981 2979 2978 2976 2973 2971 2969
3011 3011 3010 3009 3008 3007 3006 3005 3006 3006 3006 3005 3004 3003 3001 2999 2999 3000 2999 2998 2997 2996 2995 2995 2995 2995 2995 2994 2994 2994 2994 2994 2995 2995 2996 2997 2998 2999 3000 3000 3001 3003 3004 3005 3007 3008 3009 3011 3012 3013 3014 3014 3015 3016 3016 3017 3017 3016 3016 3015 3014 3013 3011 3010 3008 3006 3004 3002 2999 2997 2994 2991 2989 2986 2983 2981 2978 2976 2974 2972 2970 2967 2965 2963 2961
3006 3006 3005 3004 3003 3002 3001 3001 3001 3000 3000 2999 2998 2997 2996 2994 2994 2994 2992 2991 2989 2988 2987 2988 2988 2988 2987 2987 2987 2987 2987 2988 2989 2990 2991 2992 2993 2994 2995 2996 2997 2998 3000 3002 3003 3005 3007 3008 3010 3011 3012 3012 3013 3013 3013 3014 3014 3013 3012 3011 3010 3009 3007 3006 3004 3001 2999 2996 2994 2991 2988 2985 2982 2979 2976 2973 2971 2968 2966 2963 2961 2959 2956 2954 2952
3001 3000 3000 2999 2998 2997 2997 2996 2996 2996 2995 2994 2993 2992 2990 2990 2989 2987 2985 2984 2982 2982 2981 2981 2980 2980 2979 2979 2980 2980 2981 2983 2984 2985 2987 2988 2989 2990 2991 2993 2994 2996 2997 2999 3001 3003 3005 3006 3008 3009 3010 3010 3010 3011 3011 3011 3010 3010 3009 3008 3007 3005 3003 3001 2999 2997 2994 2991 2988 2984 2981 2978 2975 2972 2969 2966 2963 2960 2957 2954 2952 2950 2948 2945 2943
2996 2995 2995 2994 2993 2993 2992 2991 2991 2991 2990 2989 2988 2987 2986 2985 2983 2981 2979 2978 2976 2975 2974 2973 2972 2972 2971 2972 2973 2974 2976 2978 2979 2981 2983 2984 2985 2987 2989 2991 2992 2994 2996 2998 2999 3001 3003 3004 3005 3007 3007 3008 3008 3008 3008 3008 3008 3007 3006 3005 3003 3001 3000 2997 2995 2992 2989 2986 2983 2979 2975 2972 2968 2965 2961 2958 2955 2951 2949 2946 2944 2941 2939 2938 2936
2990 2990 2989 2988 2988 2987 2987 2986 2986 2986 2986 2985 2983 2982 2981 2980 2977 2975 2974 2972 2971 2969 2968 2966 2965 2964 2965 2966 2968 2970 2972 2974 2975 2977 2979 2981 2983 2985 2987 2989 2990 2992 2994 2996 2998 2999 3001 3003 3004 3005 3005 3006 3006 3006 3006 3005 3004 3004 3003 3001 3000 2998 2995 2993 2991 2987 2984 2980 2976 2973 2969 2965 2961 2957 2954 2950 2947 2944 2942 2939 2937 2935 2933 2931 2929
2985 2984 2984 2984 2983 2982 2982 2982 2982 2982 2981 2980 2979 2978 2977 2975 2972 2970 2969 2967 2965 2963 2962 2961 2960 2960 2961 2962 2964 2967 2969 2971 2973 2974 2977 2979 2981 2983 2985 2988 2990 2992 2993 2995 2997 2999 3000 3002 3002 3003 3003 3004 3004 3003 3003 3003 3002 3001 2999 2998 2996 2994 2991 2988 2985 2982 2979 2975 2971 2967 2963 2958 2954 2950 2947 2943 2941 2938 2935 2933 2931 2929 2927 2925 2924